Regional Weather Roundup
Issued by NWS

Home | Current Version | Previous Version | Text Only | Print | Product List | Glossary On
Versions: 1 2 3 4 5 6 7 8 9 10 11 12 13 14 15 16 17 18 19 20 21 22 23 24 25 26 27 28 29 30 31 32 33 34 35 36 37 38 39 40 41 42 43 44 45 46 47 48 49 50
000
ASUS43 KOAX 260210
RWRNE

WEATHER ROUNDUP FOR NEBRASKA
NATIONAL WEATHER SERVICE OMAHA NE
900 PM CDT MON SEP 25 2017

NOTES: SATELLITE DATA IS BEING USED TO AUGMENT CLOUD COVER ABOVE
       12000 FEET.
       "FAIR" INDICATES FEW OR NO CLOUDS BELOW 12,000 FEET WITH NO
       SIGNIFICANT WEATHER AND/OR OBSTRUCTIONS TO VISIBILITY.


NEZ001>004-019>022-054>056-260300-
NEBRASKA PANHANDLE

CITY           SKY/WX    TMP DP  RH WIND       PRES   REMARKS
SCOTTSBLUFF    CLEAR     47  42  83 SE6       30.10R
ALLIANCE       CLEAR     41  38  89 E5        30.09R
CHADRON        CLEAR     45  39  79 SE5       30.09R
GORDON         CLOUDY    47  43  85 CALM      30.10R
KIMBALL        CLOUDY    46  41  84 CALM      30.13R
SIDNEY         CLOUDY    48  41  76 NE6       30.12R
$$

NEZ057>060-069>072-079>082-260300-
SOUTHWEST NEBRASKA

CITY           SKY/WX    TMP DP  RH WIND       PRES   REMARKS
NORTH PLATTE   CLOUDY    49  47  93 N7        30.09R
IMPERIAL       CLOUDY    48  46  93 NE10      30.06F
LEXINGTON      CLOUDY    51  48  90 N8        30.07R
MCCOOK         RAIN      50  49  96 N12       30.08R FOG
OGALLALA       CLOUDY    50  47  89 E5        30.09R
$$

NEZ005>010-023>029-035>040-094-260300-
NORTH CENTRAL NEBRASKA

CITY           SKY/WX    TMP DP  RH WIND       PRES   REMARKS
VALENTINE      CLOUDY    49  47  93 N5        30.10R
AINSWORTH      LGT RAIN  48  47  99 N6        30.09R
BROKEN BOW     HVY RAIN  50  47  89 N7        30.07R
O`NEILL        RAIN      49  49 100 N12       30.07S
ORD            CLOUDY    50  47  89 N10       30.05R
THEDFORD       LGT RAIN  48  46  93 N6        30.10R
$$

NEZ041-046>049-061>064-073>077-083>087-260300-
SOUTH CENTRAL NEBRASKA

CITY           SKY/WX    TMP DP  RH WIND       PRES   REMARKS
GRAND ISLAND   CLOUDY    51  51 100 N14       30.04R
AURORA         CLOUDY    52  52 100 N9        30.01S
HASTINGS       CLOUDY    52  51  97 N13       30.03R
HEBRON         LGT RAIN  57  56  97 N6        30.00R
HOLDREGE       CLOUDY    50  49  95 N12       30.05R FOG
KEARNEY        LGT RAIN  50  49  96 N14       30.05R
YORK           CLOUDY    54  54 100 N13       30.02R FOG
$$

NEZ011>018-030>034-042>045-260300-
NORTHEAST NEBRASKA

CITY           SKY/WX    TMP DP  RH WIND       PRES   REMARKS
NORFOLK        LGT RAIN  53  52  96 N10       30.02R
ALBION         DRIZZLE   52  51  96 N7        30.04R
BLAIR          RAIN      58  58  99 N9        29.97R
COLUMBUS       LGT RAIN  55  53  93 N7        30.02R
FREMONT        RAIN      56  56  97 N7        29.99S
TEKAMAH        LGT RAIN  58  56  93 N8        29.98R
WAYNE          RAIN      54  51  91 N7        30.02R
$$

NEZ050>053-065>068-078-088>093-260300-
SOUTHEAST NEBRASKA

CITY           SKY/WX    TMP DP  RH WIND       PRES   REMARKS
LINCOLN        LGT RAIN  59  57  93 N10       30.00R
OMAHA EPPLEY   LGT RAIN  61  58  90 N8        29.96R FOG
BEATRICE       LGT RAIN  62  61  98 N7        29.98R
FALLS CITY     LGT RAIN  66  65  96 NE5       29.93F
NEBRASKA CITY  LGT RAIN  65  65 100 CALM      29.96R
PLATTSMOUTH    LGT RAIN  64  64 100 N3        29.96R
$$

NEZ044-045-051>053-067-260300-
OMAHA AREA

CITY           SKY/WX    TMP DP  RH WIND       PRES   REMARKS
OMAHA EPPLEY   LGT RAIN  61  58  90 N8        29.96R FOG
BLAIR          RAIN      58  58  99 N9        29.97R
FREMONT        RAIN      56  56  97 N7        29.99S
MILLARD        LGT RAIN  62  60  94 N6        29.96S
OFFUTT AFB     RAIN      63  61  94 N5        29.95S
PLATTSMOUTH    LGT RAIN  64  64 100 N3        29.96R
WAHOO          LGT RAIN  57  56  97 N9        29.98R
$$




USA.gov is the U.S. government's official web portal to all federal, state and local government web resources and services.